Hovedside
METAR-TAF:

METAR-TAF

Lufthavner :

Ventspils, Latvia

breddegrad: 57-21-28N, lengdegrad: 021-32-39E, høyde over havet: 6 m

Gjeldene værobservasjon

Denne rapporten ble laget for 12 minutter siden, klokken 12:50 UTC
Vind 11 kt fra Nordvest
Temperatur 21°C
Luftfuktighet 83%
Trykk 1010 hPa
Sikt 10 km eller mer
Spredte skyer i en høyde av 1600 ft
Spredte skyer i en høyde av 2500 ft

METAR: EVVA 151250Z AUTO 32011KT 9999 SCT016 SCT025 21/18 Q1010

Tid: 16:02 (13:02 UTC)


TAF: fraværende

Værobservasjoner og værvarsel for over 4000 flyplasser (METAR- og TAF-rapporter).

Tilgjengelige stasjoner er representert av de røde og gule prikkene på kartet.

Hold musepekeren over prikken for å se navnet på stasjonen.

Klikk så for å se værobservasjoner og -varsler.

For å forandre kartet kan du klikke på den grønne knappen med svart kryss for å zoome inn, på den grønne knappen med strek for å zoome ut, eller på de grønne pilene for å se tilstøtende kart.


METAR-TAF: